This demonstration page uses our WeatherBlox Daily Observations layout. Learn more.

Hourly Observations for August 10, 2019

Temp ( °F °C ) Dew Point ( °F °C ) Humidity (%) Winds ( mph kmh ) Pressure ( in mb ) Visibility ( mi km ) Precip ( " mm )
12:15 am 00:15 Clear 71 21.7 69 20.7 94 94 SSE 8 13 29.85 1011 10 16.09344 0 0
12:35 am 00:35 Clear 71 21.7 69 20.7 94 94 SSE 9 15 29.85 1011 10 16.09344 0 0
12:55 am 00:55 Clear 71 21.7 69 20.8 95 95 SSE 8 13 29.85 1011 10 16.09344 0 0
1:15 am 01:15 Clear 71 21.7 70 20.9 95 95 SSE 8 13 29.85 1011 10 16.09344 0 0
1:35 am 01:35 Clear 71 21.8 70 21 95 95 SSE 8 13 29.85 1011 10 16.09344 0 0
1:55 am 01:55 Clear 71 21.8 70 21.1 96 96 SSE 7 11 29.85 1011 10 16.09344 0 0
2:15 am 02:15 Clear 71 21.8 70 21.2 96 96 SSE 8 13 29.85 1011 10 16.09344 0 0
2:35 am 02:35 Clear 71 21.7 70 21.2 97 97 S 8 13 29.85 1011 10 16.09344 0 0
2:55 am 02:55 Clear 71 21.7 70 21.3 98 98 S 10 17 29.85 1011 10 16.09344 0 0
3:15 am 03:15 Clear 71 21.9 71 21.5 98 98 S 9 15 29.85 1011 10 16.09344 0 0
3:35 am 03:35 Clear 72 22 71 21.7 98 98 S 10 17 29.85 1011 10 16.09344 0 0
3:55 am 03:55 Clear 72 22.2 71 21.8 98 98 SSW 10 17 29.85 1011 10 16.09344 0 0
4:15 am 04:15 Clear 72 22.3 71 21.8 97 97 SSW 9 15 29.85 1011 10 16.09344 0 0
4:35 am 04:35 Partly Cloudy 72 22.2 71 21.8 98 98 ENE 10 17 29.85 1011 7 11.265408 0 0
4:55 am 04:55 Mostly Cloudy 72 22.2 72 22 99 99 SSE 9 15 29.85 1011 10 16.09344 0 0
5:15 am 05:15 Cloudy 72 22.2 72 22 99 99 SE 9 15 29.85 1011 7 11.265408 0 0
5:35 am 05:35 Cloudy 72 22.2 71 21.7 97 97 SE 9 15 29.8 1009 10 16.09344 0 0
5:55 am 05:55 Cloudy 72 22 71 21.7 98 98 ESE 8 13 29.83 1010 7 11.265408 0 0
6:15 am 06:15 Mostly Cloudy 72 22 71 21.7 98 98 ESE 7 11 29.85 1011 7 11.265408 0 0
6:35 am 06:35 Mostly Cloudy with Mist and Fog 72 22 71 21.8 99 99 SE 8 13 29.85 1011 5 8.04672 0 0
6:55 am 06:55 Mostly Cloudy with Mist and Fog 72 22 71 21.9 99 99 SSE 12 19 29.85 1011 5 8.04672 0 0
7:15 am 07:15 Mostly Cloudy with Mist and Fog 72 22.1 72 22.1 100 100 SSE 12 19 29.88 1012 5 8.04672 0 0
7:35 am 07:35 Cloudy with Mist and Fog 72 22.2 72 22 99 99 SSE 12 19 29.88 1012 5 8.04672 0 0
7:55 am 07:55 Cloudy 73 22.5 72 22.2 98 98 S 12 19 29.88 1012 7 11.265408 0 0
8:15 am 08:15 Cloudy 73 23 72 22.4 96 96 S 9 15 29.85 1011 7 11.265408 0 0
8:35 am 08:35 Cloudy 74 23.1 72 22.4 96 96 S 9 15 29.85 1011 7 11.265408 0 0
8:55 am 08:55 Cloudy 74 23.5 73 22.5 94 94 S 14 22 29.85 1011 10 16.09344 0 0
9:15 am 09:15 Cloudy 75 23.8 73 22.5 92 92 S 14 22 29.85 1011 10 16.09344 0 0
9:35 am 09:35 Cloudy 75 24.1 73 22.5 91 91 S 12 19 29.83 1010 10 16.09344 0 0
9:55 am 09:55 Cloudy 76 24.2 73 22.6 91 91 SSW 12 19 29.83 1010 10 16.09344 0 0
10:15 am 10:15 Mostly Cloudy 78 25.3 73 22.9 87 87 SW 14 22 29.83 1010 10 16.09344 0 0
10:35 am 10:35 Partly Cloudy 79 26 74 23.1 84 84 SW 12 19 29.83 1010 10 16.09344 0 0
10:55 am 10:55 Sunny 81 27.4 74 23.3 78 78 SW 8 13 29.8 1009 10 16.09344 0 0
11:15 am 11:15 Sunny 82 27.7 74 23.3 77 77 SSW 12 19 29.8 1009 10 16.09344 0 0
11:35 am 11:35 Sunny 82 27.9 74 23.4 77 77 SSW 9 15 29.8 1009 10 16.09344 0 0
11:55 am 11:55 Sunny 84 29.1 75 23.7 73 73 SW 10 17 29.8 1009 10 16.09344 0 0
12:15 pm 12:15 Sunny 86 30 74 23.4 68 68 SW 10 17 29.77 1008 10 16.09344 0 0
12:35 pm 12:35 Sunny 86 29.8 74 23.5 69 69 SW 7 11 29.8 1009 10 16.09344 0 0
12:55 pm 12:55 Sunny 87 30.3 75 23.8 68 68 SW 7 11 29.77 1008 10 16.09344 0 0
1:15 pm 13:15 Sunny 86 30 74 23.4 68 68 SSW 5 7 29.77 1008 10 16.09344 0 0
1:35 pm 13:35 Sunny 86 30.2 74 23.2 66 66 Calm 29.77 1008 10 16.09344 0 0
1:55 pm 13:55 Sunny 87 30.8 74 23.5 65 65 SSE 5 7 29.74 1007 10 16.09344 0 0
2:15 pm 14:15 Sunny 87 30.8 75 24 67 67 ESE 5 7 29.77 1008 10 16.09344 0 0
2:35 pm 14:35 Partly Cloudy 88 30.9 75 23.9 66 66 E 5 7 29.77 1008 10 16.09344 0 0
2:55 pm 14:55 Partly Cloudy 89 31.5 75 24 64 64 ESE 5 7 29.77 1008 10 16.09344 0 0
3:15 pm 15:15 Mostly Cloudy 88 31.1 76 24.2 67 67 ENE 6 9 29.77 1008 10 16.09344 0 0
3:35 pm 15:35 Mostly Cloudy 89 31.4 76 24.5 67 67 NE 5 7 29.77 1008 10 16.09344 0 0
3:55 pm 15:55 Partly Cloudy 90 32.1 75 24 62 62 E 5 7 29.77 1008 10 16.09344 0 0
4:15 pm 16:15 Partly Cloudy 89 31.9 77 25.2 68 68 ENE 9 15 29.77 1008 10 16.09344 0 0
4:35 pm 16:35 Partly Cloudy 89 31.9 76 24.2 64 64 E 8 13 29.74 1007 10 16.09344 0 0
4:55 pm 16:55 Sunny 90 32 75 24.1 63 63 E 8 13 29.74 1007 10 16.09344 0 0
5:15 pm 17:15 Sunny 90 32 76 24.2 63 63 E 9 15 29.74 1007 10 16.09344 0 0
5:35 pm 17:35 Sunny 89 31.7 76 24.2 64 64 E 9 15 29.74 1007 10 16.09344 0 0
5:55 pm 17:55 Sunny 89 31.7 75 23.9 63 63 E 9 15 29.74 1007 10 16.09344 0 0
6:15 pm 18:15 Sunny 88 31.3 75 23.9 65 65 E 9 15 29.74 1007 10 16.09344 0 0
6:35 pm 18:35 Sunny 87 30.8 76 24.4 69 69 ESE 12 19 29.74 1007 10 16.09344 0 0
6:55 pm 18:55 Sunny 86 30.1 75 24.1 70 70 E 12 19 29.74 1007 10 16.09344 0 0
7:15 pm 19:15 Sunny 84 29.1 75 24.1 74 74 E 8 13 29.77 1008 10 16.09344 0 0
7:35 pm 19:35 Sunny 83 28.6 76 24.5 79 79 E 8 13 29.77 1008 10 16.09344 0 0
7:55 pm 19:55 Sunny 82 28 76 24.5 81 81 ESE 10 17 29.77 1008 10 16.09344 0 0
8:15 pm 20:15 Sunny 82 27.7 75 24.1 81 81 SE 8 13 29.77 1008 10 16.09344 0 0
8:35 pm 20:35 Sunny 81 27.2 74 23.6 81 81 SE 5 7 29.8 1009 10 16.09344 0 0
8:55 pm 20:55 Clear 80 26.5 75 23.7 85 85 SE 6 9 29.8 1009 10 16.09344 0 0
9:15 pm 21:15 Clear with Nearby Thunderstorms 79 26 75 23.8 88 88 ESE 6 9 29.85 1011 10 16.09344 0 0
9:35 pm 21:35 Clear 78 25.8 75 24 90 90 ESE 7 11 29.83 1010 10 16.09344 0 0
9:55 pm 21:55 Clear 78 25.8 75 24.1 90 90 SE 5 7 29.88 1012 10 16.09344 0 0
10:15 pm 22:15 Clear 78 25.5 75 24 91 91 ESE 5 7 29.85 1011 10 16.09344 0 0
10:35 pm 22:35 Partly Cloudy with Light Rain 77 25.1 75 24 94 94 Calm 29.88 1012 10 16.09344 0 0
10:55 pm 22:55 Cloudy with Light Rain 76 24.7 76 24.2 97 97 Calm 29.88 1012 7 11.265408 0 0
11:15 pm 23:15 Mostly Cloudy with Light Rain 76 24.5 76 24.3 99 99 ENE 3 6 29.88 1012 5 8.04672 0.01 0.254
11:35 pm 23:35 Mostly Cloudy with Light Rain 76 24.3 76 24.2 99 99 NNE 5 7 29.88 1012 4 6.437376 0.02 0.508
11:55 pm 23:55 Mostly Cloudy with Light Rain 76 24.4 76 24.4 100 100 Calm 29.88 1012 5 8.04672 0.03 0.762

Powered by AerisWeather